This demonstration page uses our WeatherBlox Daily Observations layout. Learn more.

Left ArrowRight Arrow

38.88101, -77.10428

Hourly Observations for November 1, 2018

Temp ( °F °C ) Dew Point ( °F °C ) Humidity (%) Winds ( mph kmh ) Pressure ( in mb ) Visibility ( mi km ) Precip ( " mm )
12:52 am 00:52 Mostly Cloudy 59 15 53 11.7 81 81 S 9 15 29.93 1014 10 16.0934 0 0
1:52 am 01:52 Partly Cloudy 58 14.4 53 11.7 84 84 S 9 15 29.92 1013 10 16.0934 0 0
2:52 am 02:52 Mostly Clear 58 14.4 53 11.7 84 84 SSW 8 13 29.91 1013 10 16.0934 0 0
3:52 am 03:52 Partly Cloudy 58 14.4 53 11.7 84 84 SSW 7 11 29.91 1013 10 16.0934 0 0
4:52 am 04:52 Mostly Clear 57 13.9 53 11.7 87 87 S 7 11 29.91 1013 10 16.0934 0 0
5:52 am 05:52 Partly Cloudy 58 14.4 53 11.7 84 84 SW 6 9 29.92 1013 10 16.0934 0 0
6:52 am 06:52 Partly Cloudy 57 13.9 53 11.7 87 87 S 8 13 29.91 1013 10 16.0934 0 0
7:52 am 07:52 Mostly Cloudy 59 15 54 12.2 83 83 S 8 13 29.91 1013 10 16.0934 0 0
8:52 am 08:52 Mostly Cloudy 61 16.1 55 12.8 81 81 S 7 11 29.92 1013 10 16.0934 0 0
9:52 am 09:52 Partly Cloudy 62 16.7 55 12.8 78 78 S 9 15 29.91 1013 10 16.0934 0 0
10:52 am 10:52 Partly Cloudy 67 19.4 56 13.3 68 68 SSW 10 17 29.9 1013 10 16.0934 0 0
11:52 am 11:52 Mostly Cloudy 68 20 56 13.3 65 65 S 12 19 29.89 1012 10 16.0934 0 0
12:52 pm 12:52 Cloudy 73 22.8 57 13.9 57 57 S 13 20 29.86 1011 10 16.0934 0 0
1:52 pm 13:52 Cloudy 73 22.8 56 13.3 55 55 S 12 19 29.85 1011 10 16.0934 0 0
2:52 pm 14:52 Cloudy 74 23.3 55 12.8 52 52 S 24 39 29.84 1011 10 16.0934 0 0
3:52 pm 15:52 Mostly Cloudy 73 22.8 56 13.3 55 55 SSW 17 28 29.83 1010 10 16.0934 0 0
4:52 pm 16:52 Mostly Cloudy 71 21.7 55 12.8 57 57 S 15 24 29.82 1010 10 16.0934 0 0
5:52 pm 17:52 Mostly Cloudy 66 18.9 55 12.8 68 68 S 14 22 29.81 1010 10 16.0934 0 0
6:52 pm 18:52 Mostly Cloudy 66 18.9 56 13.3 70 70 S 13 20 29.81 1010 10 16.0934 0 0
7:52 pm 19:52 Mostly Cloudy 66 18.9 58 14.4 75 75 S 13 20 29.8 1009 10 16.0934 0 0
8:52 pm 20:52 Mostly Cloudy 65 18.3 58 14.4 78 78 S 10 17 29.79 1009 10 16.0934 0 0
9:52 pm 21:52 Cloudy 68 20 59 15 73 73 S 13 20 29.77 1008 10 16.0934 0 0
10:52 pm 22:52 Mostly Cloudy 69 20.6 60 15.6 73 73 S 20 31 29.74 1007 10 16.0934 0 0
11:34 pm 23:34 Cloudy 67 19.4 60 15.6 79 79 S 18 30 29.71 1006 10 16.0934 0 0
11:52 pm 23:52 Cloudy 68 20 61 16.1 78 78 S 15 24 29.71 1006 10 16.0934 0 0

Powered by AerisWeather